Flag for Japan Weather past 2 weeks in Hiroshima, Japan

Now
51 °F

Partly sunny.


Feels Like: 51 °F
Forecast: 35 / 49 °F
Wind: 3 mph from North

Location: Iwakuni Marine Corps Air Station

Current Time: Jan 25, 2015 at 12:54:43 PM

Latest Report: Jan 25, 2015 at 11:55 AM


Visibility: N/A

Pressure: 30.36 "Hg

Humidity: 63%

Dew point: 39 °F

Location of HiroshimaLocation

Historic Weather in Hiroshima — Graph

°F

Hiroshima temperature yesterday

Maximum temperature yesterday: 53 °F (at 1:55 PM)
Minimum temperature yesterday: 34 °F (at 5:55 AM)
Average temperature yesterday: 43 °F

Past Weeks' High & Low Weather Summary

 TemperatureHumidityPressure
High55 °F (Jan 22, 2:55 PM)93% (Jan 15, 5:55 AM)30.57 "Hg (Jan 15, 5:55 AM)
Low33 °F (Jan 18, 4:55 AM)37% (Jan 20, 1:55 PM)29.75 "Hg (Jan 22, 2:55 PM)
Average44 °F68%30.19 "Hg
* Reported Jan 10 10:55 AM — Jan 25 10:55 AM, Hiroshima, Weather by CustomWeather, © 2014

Note: Actual official high and low records may vary slightly from our data, if they occured in-between our weather recording intervals... More about our weather records

Advertising

Hiroshima weather history for previous 24 hours

 ConditionsComfort  
Time TempWeatherWind HumidityBarometerVisibility
10:55 AM
Jan 25
48 °FBroken clouds.5 mph66%30.37 "HgN/A
9:55 AM44 °FPartly sunny.6 mph73%30.39 "HgN/A
8:55 AM41 °FPartly sunny.7 mph80%30.39 "HgN/A
7:55 AM39 °FMostly cloudy.8 mph86%30.38 "HgN/A
6:55 AM39 °FPassing clouds.8 mph82%30.38 "HgN/A
5:55 AM39 °FPassing clouds.9 mph86%30.37 "HgN/A
4:55 AM39 °FPassing clouds.7 mph86%30.37 "HgN/A
3:55 AM39 °FPassing clouds.8 mph86%30.38 "HgN/A
2:55 AM40 °FPassing clouds.8 mph83%30.37 "HgN/A
1:55 AM43 °FPassing clouds.8 mph76%30.35 "HgN/A
12:55 AM42 °FPassing clouds.3 mph79%30.34 "HgN/A
11:55 PM
Jan 24
43 °FPassing clouds.7 mph76%30.34 "HgN/A
10:55 PM44 °FPassing clouds.8 mph73%30.34 "HgN/A
9:55 PM44 °FPassing clouds.5 mph76%30.33 "HgN/A
8:55 PM48 °FPassing clouds.5 mph66%30.33 "HgN/A
7:55 PM47 °FPassing clouds.10 mph71%30.32 "HgN/A
6:55 PM49 °FPassing clouds.6 mph66%30.29 "HgN/A
5:55 PM50 °FPassing clouds.7 mph63%30.26 "HgN/A
4:55 PM51 °FPartly sunny.No wind61%30.24 "HgN/A
3:55 PM51 °FPartly sunny.6 mph66%30.24 "HgN/A
2:55 PM52 °FPartly sunny.9 mph64%30.23 "HgN/A
1:55 PM53 °FPartly sunny.8 mph66%30.23 "HgN/A
12:55 PM48 °FPartly sunny.6 mph68%30.26 "HgN/A
Weather by CustomWeather, © 2014

See weather overviewHow to use our weather pages